Flag for Honduras Weather past 2 weeks in La Ceiba, Honduras

Now
68 °F

Rain. Mostly cloudy.


Feels Like: 68 °F
Forecast: 68 / 73 °F
Wind: 7 mph from Southwest

Location: La Ceiba Airport

Current Time: Jan 26, 2015 at 9:29:24 AM

Latest Report: Jan 26, 2015 at 9:00 AM


Visibility: 1 mi

Pressure: 30.15 "Hg

Humidity: 94%

Dew point: 66 °F

Location of La CeibaLocation

Historic Weather in La Ceiba — Graph

°F

La Ceiba temperature yesterday

Maximum temperature yesterday: 75 °F (at 12:00 AM)
Minimum temperature yesterday: 68 °F (at 4:00 PM)
Average temperature yesterday: 70 °F

Past Weeks' High & Low Weather Summary

 TemperatureHumidityPressure
High86 °F (Jan 23, 1:00 PM)100% (Jan 15, 6:00 AM)30.15 "Hg (Jan 15, 6:00 AM)
Low64 °F (Jan 17, 6:00 AM)51% (Jan 20, 7:00 AM)29.89 "Hg (Jan 23, 1:00 PM)
Average75 °F84%30.02 "Hg
* Reported Jan 11 8:00 AM — Jan 26 8:00 AM, La Ceiba, Weather by CustomWeather, © 2014

Note: Actual official high and low records may vary slightly from our data, if they occured in-between our weather recording intervals... More about our weather records

Advertising

La Ceiba weather history for previous 24 hours

 ConditionsComfort  
Time TempWeatherWind HumidityBarometerVisibility
8:00 AM
Jan 26
68 °FRain. Mostly cloudy.8 mph94%30.12 "Hg1 mi
7:00 AM68 °FMostly cloudy.8 mph94%30.12 "HgN/A
6:00 AM68 °FPartly cloudy.8 mph94%30.09 "HgN/A
12:00 AM68 °FPartly cloudy.8 mph94%30.07 "HgN/A
11:00 PM
Jan 25
70 °FPartly cloudy.6 mph94%30.07 "HgN/A
10:00 PM68 °FPartly cloudy.10 mph94%30.09 "HgN/A
9:00 PM68 °FPartly cloudy.9 mph94%30.07 "HgN/A
8:00 PM68 °FPartly cloudy.8 mph94%30.07 "HgN/A
7:00 PM68 °FPartly cloudy.9 mph94%30.04 "HgN/A
6:00 PM68 °FScattered showers. Mostly cloudy.7 mph94%30.04 "Hg3 mi
5:00 PM68 °FRain. Cloudy.8 mph94%30.01 "Hg1 mi
4:00 PM68 °FScattered showers. Mostly cloudy.7 mph94%30.01 "Hg2 mi
3:00 PM70 °FRain. Mostly cloudy.8 mph94%30.01 "Hg1 mi
2:00 PM70 °FMild.6 mph94%30.01 "HgN/A
1:00 PM70 °FRain. Mostly cloudy.8 mph94%30.04 "Hg1 mi
12:00 PM70 °FRain. Mostly cloudy.8 mph94%30.07 "Hg1 mi
11:00 AM70 °FRain. Cloudy.7 mph94%30.07 "Hg1 mi
10:00 AM70 °FRain. Cloudy.5 mph94%30.09 "Hg1 mi
9:00 AM72 °FHeavy rain. Cloudy.5 mph94%30.09 "Hg1 mi
Weather by CustomWeather, © 2014

See weather overviewHow to use our weather pages